Location: Harwich
(41.7160°N, 69.9939°W)
Time: 10:39:21
(UTC+02:00)

A-11 Canister half - Pass Details

Date: 25 February 2024
Orbit: 1513 x 1686 km, 47.2° (Epoch: 24 April)

Event Time Altitude Azimuth Distance (km) Brightness Sun altitude
Exits shadow 11:32:50 10° 290° (WNW) 3,948 10.5 -9.9°
Reaches altitude 10° 11:32:56 10° 290° (WNW) 3,917 10.5 -9.9°
Maximum altitude 11:42:58 71° 14° (NNE) 1,703 9.3 -8.0°
Drops below altitude 10° 11:52:37 10° 98° (E) 3,780 12.9 -6.2°
Sets 11:55:40 0° 101° (E) 4,740 14.4 -5.6°
